| time (UTC) | temp F | wind direction | speed MPH | gust MPH | rain 1hr in | rain 24hr in | rain mn in | humidity % | barometer mb |
| 20260505204144 | 84 | 204 | 9.0 | 21.0 | 0.00 | 0.00 | 0.00 | 29 | 1002.5 |
| 20260505203645 | 84 | 253 | 8.0 | 18.0 | 0.00 | 0.00 | 0.00 | 30 | 1002.6 |
| 20260505203145 | 84 | 202 | 9.0 | 24.0 | 0.00 | 0.00 | 0.00 | 31 | 1002.6 |
| 20260505202645 | 84 | 254 | 8.0 | 24.0 | 0.00 | 0.00 | 0.00 | 29 | 1002.5 |
| 20260505202145 | 84 | 295 | 6.0 | 14.0 | 0.00 | 0.00 | 0.00 | 34 | 1002.7 |
| 20260505201645 | 84 | 292 | 4.0 | 21.0 | 0.00 | 0.00 | 0.00 | 32 | 1002.8 |
| 20260505201145 | 83 | 175 | 5.0 | 21.0 | 0.00 | 0.00 | 0.00 | 31 | 1002.8 |
| 20260505200645 | 82 | 240 | 7.0 | 26.0 | 0.00 | 0.00 | 0.00 | 32 | 1002.9 |
| 20260505200144 | 83 | 274 | 7.0 | 26.0 | 0.00 | 0.00 | 0.00 | 32 | 1003.0 |
| 20260505195642 | 83 | 234 | 5.0 | 22.0 | 0.00 | 0.00 | 0.00 | 32 | 1003.0 |
| 20260505195143 | 83 | 175 | 4.0 | 15.0 | 0.00 | 0.00 | 0.00 | 32 | 1003.2 |
| 20260505194643 | 83 | 271 | 7.0 | 26.0 | 0.00 | 0.00 | 0.00 | 32 | 1003.2 |
| 20260505194143 | 83 | 167 | 8.0 | 26.0 | 0.00 | 0.00 | 0.00 | 32 | 1003.2 |
| 20260505193643 | 83 | 169 | 7.0 | 24.0 | 0.00 | 0.00 | 0.00 | 32 | 1003.2 |
| 20260505193142 | 83 | 208 | 7.0 | 25.0 | 0.00 | 0.00 | 0.00 | 32 | 1003.2 |
| 20260505193125 | 83 | 232 | 9.0 | 28.0 | 0.00 | 0.00 | 0.00 | 33 | 1003.5 |
| 20260505192400 | 83 | 227 | 11.0 | 28.0 | 0.00 | 0.00 | 0.00 | 32 | 1003.3 |
| 20260505191639 | 83 | 213 | 12.0 | 29.0 | 0.00 | 0.00 | 0.00 | 33 | 1003.5 |
| 20260505191139 | 83 | 281 | 11.0 | 33.0 | 0.00 | 0.00 | 0.00 | 32 | 1003.4 |
| 20260505190639 | 83 | 227 | 9.0 | 33.0 | 0.00 | 0.00 | 0.00 | 32 | 1003.5 |
| 20260505190137 | 83 | 202 | 7.0 | 20.0 | 0.00 | 0.00 | 0.00 | 33 | 1003.7 |
| 20260505185637 | 83 | 250 | 9.0 | 20.0 | 0.00 | 0.00 | 0.00 | 35 | 1003.8 |
| 20260505185135 | 83 | 239 | 9.0 | 23.0 | 0.00 | 0.00 | 0.00 | 33 | 1003.8 |
| 20260505184635 | 83 | 252 | 9.0 | 23.0 | 0.00 | 0.00 | 0.00 | 35 | 1003.8 |
| 20260505184551 | 82 | 288 | 10.0 | 24.0 | 0.00 | 0.00 | 0.00 | 35 | 1004.0 |
| 20260505184504 | 82 | 244 | 10.0 | 25.0 | 0.00 | 0.00 | 0.00 | 34 | 1003.9 |
| 20260505184423 | 82 | 246 | 10.0 | 25.0 | 0.00 | 0.00 | 0.00 | 35 | 1003.8 |
| 20260505182643 | 82 | 228 | 10.0 | 23.0 | 0.00 | 0.00 | 0.00 | 36 | 1004.1 |
| 20260505182130 | 82 | 235 | 10.0 | 23.0 | 0.00 | 0.00 | 0.00 | 39 | 1004.1 |
| 20260505182119 | 82 | 168 | 10.0 | 22.0 | 0.00 | 0.00 | 0.00 | 37 | 1004.2 |
| 20260505181349 | 82 | 277 | 9.0 | 22.0 | 0.00 | 0.00 | 0.00 | 38 | 1004.2 |
| 20260505180618 | 81 | 277 | 9.0 | 21.0 | 0.00 | 0.00 | 0.00 | 39 | 1004.3 |
| 20260505180336 | 81 | 284 | 10.0 | 28.0 | 0.00 | 0.00 | 0.00 | 37 | 1004.2 |
| 20260505175606 | 82 | 242 | 10.0 | 28.0 | 0.00 | 0.00 | 0.00 | 37 | 1004.3 |
| 20260505175348 | 81 | 198 | 8.0 | 23.0 | 0.00 | 0.00 | 0.00 | 39 | 1004.4 |
| 20260505175101 | 82 | 213 | 8.0 | 23.0 | 0.00 | 0.00 | 0.00 | 38 | 1004.2 |
| 20260505174813 | 81 | 207 | 9.0 | 21.0 | 0.00 | 0.00 | 0.00 | 39 | 1004.6 |
| 20260505173835 | 81 | 159 | 9.0 | 20.0 | 0.00 | 0.00 | 0.00 | 38 | 1004.4 |
| 20260505173327 | 81 | 284 | 8.0 | 20.0 | 0.00 | 0.00 | 0.00 | 40 | 1004.6 |
| 20260505173054 | 81 | 188 | 9.0 | 20.0 | 0.00 | 0.00 | 0.00 | 40 | 1004.6 |
| 20260505172328 | 80 | 248 | 8.0 | 20.0 | 0.00 | 0.00 | 0.00 | 42 | 1004.7 |
| 20260505172058 | 80 | 252 | 8.0 | 20.0 | 0.00 | 0.00 | 0.00 | 41 | 1004.6 |
| 20260505171121 | 80 | 253 | 8.0 | 20.0 | 0.00 | 0.00 | 0.00 | 41 | 1004.7 |
| 20260505170850 | 80 | 190 | 8.0 | 16.0 | 0.00 | 0.00 | 0.00 | 43 | 1004.9 |
| 20260505170051 | 79 | 244 | 7.0 | 16.0 | 0.00 | 0.00 | 0.00 | 42 | 1004.8 |
| 20260505165825 | 79 | 163 | 7.0 | 19.0 | 0.00 | 0.00 | 0.00 | 44 | 1004.8 |
| 20260505165049 | 79 | 227 | 8.0 | 19.0 | 0.00 | 0.00 | 0.00 | 42 | 1005.0 |
| 20260505164820 | 79 | 254 | 6.0 | 19.0 | 0.00 | 0.00 | 0.00 | 43 | 1005.1 |
| 20260505164048 | 79 | 231 | 6.0 | 19.0 | 0.00 | 0.00 | 0.00 | 43 | 1005.1 |
| 20260505163549 | 79 | 218 | 6.0 | 16.0 | 0.00 | 0.00 | 0.00 | 44 | 1005.1 |
| 20260505163050 | 78 | 268 | 7.0 | 15.0 | 0.00 | 0.00 | 0.00 | 44 | 1005.2 |
| 20260505163032 | 77 | 216 | 7.0 | 15.0 | 0.00 | 0.00 | 0.00 | 45 | 1005.4 |
| 20260505162906 | 78 | 222 | 7.0 | 15.0 | 0.00 | 0.00 | 0.00 | 44 | 1005.3 |
| 20260505161544 | 77 | 173 | 7.0 | 15.0 | 0.00 | 0.00 | 0.00 | 45 | 1005.6 |
| 20260505161310 | 77 | 238 | 7.0 | 14.0 | 0.00 | 0.00 | 0.00 | 44 | 1005.7 |
| 20260505160530 | 77 | 174 | 7.0 | 14.0 | 0.00 | 0.00 | 0.00 | 45 | 1005.7 |
| 20260505152948 | 76 | 240 | 6.0 | 16.0 | 0.00 | 0.00 | 0.00 | 46 | 1006.2 |
| 20260505152443 | 76 | 227 | 6.0 | 16.0 | 0.00 | 0.00 | 0.00 | 47 | 1006.2 |
| 20260505151936 | 75 | 243 | 7.0 | 13.0 | 0.00 | 0.00 | 0.00 | 46 | 1006.2 |
| 20260505151435 | 75 | 266 | 6.0 | 13.0 | 0.00 | 0.00 | 0.00 | 46 | 1006.1 |
| 20260505151430 | 75 | 229 | 7.0 | 12.0 | 0.00 | 0.00 | 0.00 | 46 | 1006.2 |
| 20260505150705 | 75 | 259 | 5.0 | 13.0 | 0.00 | 0.00 | 0.00 | 46 | 1006.1 |
| 20260505150143 | 75 | 245 | 5.0 | 12.0 | 0.00 | 0.00 | 0.00 | 46 | 1006.2 |
| 20260505140306 | 70 | 292 | 2.0 | 7.0 | 0.00 | 0.00 | 0.00 | 41 | 1007.1 |
| 20260505140107 | 68 | 267 | 3.0 | 7.0 | 0.00 | 0.00 | 0.00 | 41 | 1007.1 |
| 20260505123858 | 60 | 253 | 0.0 | 5.0 | 0.00 | 0.00 | 0.00 | 1 | 1007.3 |
| 20260505123118 | 59 | 238 | 0.0 | 0.0 | 0.00 | 0.00 | 0.00 | 1 | 1007.1 |
| 20260505122613 | 59 | 238 | 0.0 | 0.0 | 0.00 | 0.00 | 0.00 | 1 | 1007.4 |
| 20260505122538 | 58 | 238 | 0.0 | 0.0 | 0.00 | 0.00 | 0.00 | 1 | 1007.4 |
| 20260505122200 | 58 | 238 | 0.0 | 0.0 | 0.00 | 0.00 | 0.00 | 1 | 1007.3 |
| 20260505122145 | 59 | 238 | 0.0 | 0.0 | 0.00 | 0.00 | 0.00 | 1 | 1007.4 |
| 20260505121438 | 57 | 237 | 0.0 | 5.0 | 0.00 | 0.00 | 0.00 | 1 | 1007.4 |
| 20260505121430 | 58 | 238 | 0.0 | 4.0 | 0.00 | 0.00 | 0.00 | 1 | 1007.4 |
| 20260505120949 | 56 | 237 | 0.0 | 5.0 | 0.00 | 0.00 | 0.00 | 1 | 1007.3 |
| 20260505120601 | 56 | 0 | 0.0 | 0.0 | 0.00 | 0.00 | 0.00 | 1 | 1007.4 |
| 20260505120552 | 55 | 0 | 0.0 | 4.0 | 0.00 | 0.00 | 0.00 | 1 | 1007.4 |
| 20260505120548 | 58 | 238 | 0.0 | 4.0 | 0.00 | 0.00 | 0.00 | 1 | 1007.4 |
| 20260505120543 | 54 | 0 | 1.0 | 6.0 | 0.00 | 0.00 | 0.00 | 1 | 1007.3 |
| 20260505113532 | 55 | 0 | 1.0 | 6.0 | 0.00 | 0.00 | 0.00 | 1 | 1007.4 |
| 20260505113437 | 53 | 228 | 2.0 | 6.0 | 0.00 | 0.00 | 0.00 | 1 | 1007.6 |
| 20260505112158 | 52 | 216 | 0.0 | 0.0 | 0.00 | 0.00 | 0.00 | 1 | 1007.6 |
| 20260505112006 | 52 | 217 | 0.0 | 4.0 | 0.00 | 0.00 | 0.00 | 1 | 1007.6 |
| 20260505111954 | 53 | 221 | 1.0 | 6.0 | 0.00 | 0.00 | 0.00 | 1 | 1007.4 |
| 20260505111847 | 51 | 216 | 0.0 | 0.0 | 0.00 | 0.00 | 0.00 | 1 | 1007.7 |
| 20260505111823 | 52 | 216 | 0.0 | 0.0 | 0.00 | 0.00 | 0.00 | 1 | 1007.7 |
| 20260505101919 | 48 | 0 | 0.0 | 0.0 | 0.00 | 0.00 | 0.00 | 1 | 1007.2 |
| 20260505101419 | 48 | 213 | 0.0 | 0.0 | 0.00 | 0.00 | 0.00 | 1 | 1007.0 |
| 20260505100921 | 48 | 213 | 0.0 | 0.0 | 0.00 | 0.00 | 0.00 | 1 | 1007.0 |
| 20260505100418 | 47 | 213 | 0.0 | 0.0 | 0.00 | 0.00 | 0.00 | 1 | 1007.0 |
| 20260505100410 | 47 | 213 | 0.0 | 0.0 | 0.00 | 0.00 | 0.00 | 1 | 1006.9 |
| 20260505095416 | 47 | 213 | 0.0 | 0.0 | 0.00 | 0.00 | 0.00 | 1 | 1006.9 |
| 20260505095144 | 47 | 213 | 0.0 | 0.0 | 0.00 | 0.00 | 0.00 | 1 | 1007.0 |
| 20260505095020 | 47 | 213 | 0.0 | 0.0 | 0.00 | 0.00 | 0.00 | 1 | 1007.1 |
| 20260505094845 | 47 | 213 | 0.0 | 0.0 | 0.00 | 0.00 | 0.00 | 1 | 1006.9 |
| 20260505093416 | 47 | 213 | 0.0 | 0.0 | 0.00 | 0.00 | 0.00 | 1 | 1006.9 |
| 20260505092916 | 47 | 213 | 0.0 | 0.0 | 0.00 | 0.00 | 0.00 | 1 | 1006.9 |
| 20260505092415 | 47 | 213 | 0.0 | 0.0 | 0.00 | 0.00 | 0.00 | 1 | 1006.8 |
| 20260505091914 | 47 | 213 | 0.0 | 0.0 | 0.00 | 0.00 | 0.00 | 1 | 1006.6 |
| 20260505091412 | 47 | 213 | 0.0 | 0.0 | 0.00 | 0.00 | 0.00 | 1 | 1006.6 |
| 20260505090912 | 47 | 213 | 0.0 | 0.0 | 0.00 | 0.00 | 0.00 | 1 | 1006.7 |
| 20260505090636 | 47 | 213 | 0.0 | 0.0 | 0.00 | 0.00 | 0.00 | 1 | 1006.6 |
| 20260505090132 | 47 | 213 | 0.0 | 0.0 | 0.00 | 0.00 | 0.00 | 1 | 1006.5 |
| 20260505085413 | 48 | 213 | 0.0 | 0.0 | 0.00 | 0.00 | 0.00 | 1 | 1006.5 |
| 20260505085205 | 48 | 213 | 0.0 | 0.0 | 0.00 | 0.00 | 0.00 | 1 | 1006.6 |
| 20260505084408 | 48 | 213 | 0.0 | 0.0 | 0.00 | 0.00 | 0.00 | 1 | 1006.6 |
| 20260505083908 | 48 | 213 | 0.0 | 0.0 | 0.00 | 0.00 | 0.00 | 1 | 1006.8 |
| 20260505083408 | 48 | 213 | 0.0 | 0.0 | 0.00 | 0.00 | 0.00 | 1 | 1006.8 |
| 20260505083357 | 49 | 213 | 0.0 | 0.0 | 0.00 | 0.00 | 0.00 | 1 | 1006.7 |
| 20260505083212 | 49 | 213 | 0.0 | 0.0 | 0.00 | 0.00 | 0.00 | 1 | 1006.7 |
| 20260505081908 | 49 | 213 | 0.0 | 0.0 | 0.00 | 0.00 | 0.00 | 1 | 1006.7 |
| 20260505081408 | 49 | 213 | 0.0 | 0.0 | 0.00 | 0.00 | 0.00 | 1 | 1006.7 |
| 20260505080908 | 50 | 213 | 0.0 | 0.0 | 0.00 | 0.00 | 0.00 | 1 | 1006.8 |
| 20260505080408 | 50 | 213 | 0.0 | 0.0 | 0.00 | 0.00 | 0.00 | 1 | 1006.7 |
| 20260505075903 | 51 | 213 | 0.0 | 0.0 | 0.00 | 0.00 | 0.00 | 1 | 1006.8 |
| 20260505075625 | 51 | 213 | 0.0 | 0.0 | 0.00 | 0.00 | 0.00 | 1 | 1006.8 |
| 20260505074904 | 51 | 213 | 0.0 | 0.0 | 0.00 | 0.00 | 0.00 | 1 | 1006.8 |
| 20260505074710 | 52 | 213 | 0.0 | 0.0 | 0.00 | 0.00 | 0.00 | 1 | 1006.7 |
| 20260505074635 | 51 | 213 | 0.0 | 0.0 | 0.00 | 0.00 | 0.00 | 1 | 1006.7 |
| 20260505074548 | 52 | 213 | 0.0 | 0.0 | 0.00 | 0.00 | 0.00 | 13 | 1006.8 |
| 20260505074543 | 52 | 213 | 0.0 | 0.0 | 0.00 | 0.00 | 0.00 | 8 | 1006.7 |
| 20260505074539 | 52 | 213 | 0.0 | 0.0 | 0.00 | 0.00 | 0.00 | 6 | 1006.8 |
| 20260505071904 | 53 | 213 | 0.0 | 0.0 | 0.00 | 0.00 | 0.00 | 18 | 1006.8 |
| 20260505071404 | 53 | 213 | 0.0 | 0.0 | 0.00 | 0.00 | 0.00 | 23 | 1006.8 |
| 20260505070903 | 53 | 213 | 0.0 | 0.0 | 0.00 | 0.00 | 0.00 | 22 | 1006.7 |
| 20260505070403 | 53 | 213 | 0.0 | 0.0 | 0.00 | 0.00 | 0.00 | 25 | 1006.8 |
| 20260505065903 | 54 | 213 | 0.0 | 0.0 | 0.00 | 0.00 | 0.00 | 25 | 1006.7 |
| 20260505065401 | 54 | 213 | 0.0 | 0.0 | 0.00 | 0.00 | 0.00 | 29 | 1006.7 |
| 20260505064901 | 54 | 213 | 0.0 | 0.0 | 0.00 | 0.00 | 0.00 | 32 | 1006.8 |
| 20260505064359 | 54 | 213 | 0.0 | 0.0 | 0.00 | 0.00 | 0.00 | 31 | 1006.8 |
| 20260505064119 | 54 | 213 | 0.0 | 0.0 | 0.00 | 0.00 | 0.00 | 31 | 1006.7 |
| 20260505063403 | 54 | 213 | 0.0 | 0.0 | 0.00 | 0.00 | 0.00 | 27 | 1006.7 |
| 20260505063359 | 54 | 213 | 0.0 | 0.0 | 0.00 | 0.00 | 0.00 | 27 | 1006.7 |
| 20260505063319 | 56 | 213 | 0.0 | 0.0 | 0.00 | 0.00 | 0.00 | 42 | 1006.9 |
| 20260505063247 | 54 | 213 | 0.0 | 0.0 | 0.00 | 0.00 | 0.00 | 28 | 1006.6 |
| 20260505063239 | 55 | 213 | 0.0 | 0.0 | 0.00 | 0.00 | 0.00 | 31 | 1006.7 |
| 20260505062653 | 55 | 213 | 0.0 | 0.0 | 0.00 | 0.00 | 0.00 | 33 | 1006.8 |
| 20260505062649 | 55 | 213 | 0.0 | 1.0 | 0.00 | 0.00 | 0.00 | 36 | 1006.9 |
| 20260505062645 | 56 | 213 | 0.0 | 1.0 | 0.00 | 0.00 | 0.00 | 39 | 1006.9 |
| 20260505062641 | 55 | 213 | 0.0 | 0.0 | 0.00 | 0.00 | 0.00 | 35 | 1006.7 |
| 20260505062523 | 55 | 213 | 0.0 | 0.0 | 0.00 | 0.00 | 0.00 | 30 | 1006.7 |
| 20260505062309 | 55 | 213 | 0.0 | 0.0 | 0.00 | 0.00 | 0.00 | 32 | 1006.8 |
| 20260505053815 | 56 | 213 | 0.0 | 0.0 | 0.00 | 0.00 | 0.00 | 46 | 1006.9 |
| 20260505053355 | 59 | 209 | 0.0 | 4.0 | 0.00 | 0.00 | 0.00 | 50 | 1007.0 |
| 20260505053309 | 57 | 213 | 0.0 | 0.0 | 0.00 | 0.00 | 0.00 | 47 | 1007.0 |
| 20260505053110 | 57 | 213 | 0.0 | 0.0 | 0.00 | 0.00 | 0.00 | 48 | 1007.0 |
| 20260505053017 | 57 | 213 | 0.0 | 0.0 | 0.00 | 0.00 | 0.00 | 48 | 1007.1 |
| 20260505051817 | 58 | 212 | 0.0 | 2.0 | 0.00 | 0.00 | 0.00 | 50 | 1006.9 |
| 20260505051812 | 58 | 213 | 0.0 | 0.0 | 0.00 | 0.00 | 0.00 | 49 | 1007.1 |
| 20260505051702 | 58 | 235 | 0.0 | 4.0 | 0.00 | 0.00 | 0.00 | 50 | 1006.9 |
| 20260505051658 | 58 | 236 | 0.0 | 4.0 | 0.00 | 0.00 | 0.00 | 50 | 1006.9 |
| 20260505051654 | 58 | 213 | 0.0 | 0.0 | 0.00 | 0.00 | 0.00 | 49 | 1007.0 |
| 20260505051649 | 58 | 213 | 0.0 | 0.0 | 0.00 | 0.00 | 0.00 | 49 | 1007.0 |
| 20260505051435 | 58 | 212 | 0.0 | 0.0 | 0.00 | 0.00 | 0.00 | 50 | 1007.0 |
| 20260505041637 | 59 | 224 | 0.0 | 0.0 | 0.00 | 0.00 | 0.00 | 50 | 1007.0 |
| 20260505041131 | 59 | 247 | 0.0 | 2.0 | 0.00 | 0.00 | 0.00 | 50 | 1007.0 |
| 20260505040856 | 59 | 220 | 0.0 | 2.0 | 0.00 | 0.00 | 0.00 | 50 | 1007.0 |
| 20260505040119 | 59 | 237 | 0.0 | 4.0 | 0.00 | 0.00 | 0.00 | 50 | 1007.0 |
| 20260505035612 | 60 | 236 | 0.0 | 5.0 | 0.00 | 0.00 | 0.00 | 50 | 1007.0 |
| 20260505035107 | 60 | 218 | 0.0 | 1.0 | 0.00 | 0.00 | 0.00 | 51 | 1007.0 |
| 20260505034819 | 60 | 215 | 0.0 | 1.0 | 0.00 | 0.00 | 0.00 | 50 | 1007.0 |
| 20260505034552 | 60 | 257 | 0.0 | 0.0 | 0.00 | 0.00 | 0.00 | 51 | 1006.9 |
| 20260505033550 | 60 | 258 | 0.0 | 4.0 | 0.00 | 0.00 | 0.00 | 50 | 1006.9 |
| 20260505033043 | 60 | 269 | 0.0 | 7.0 | 0.00 | 0.00 | 0.00 | 50 | 1007.0 |
| 20260505032032 | 60 | 248 | 0.0 | 6.0 | 0.00 | 0.00 | 0.00 | 51 | 1007.0 |
| 20260505031525 | 60 | 254 | 0.0 | 0.0 | 0.00 | 0.00 | 0.00 | 51 | 1007.0 |
| 20260505031019 | 60 | 257 | 0.0 | 2.0 | 0.00 | 0.00 | 0.00 | 51 | 1007.0 |
| 20260505030514 | 60 | 258 | 0.0 | 4.0 | 0.00 | 0.00 | 0.00 | 51 | 1007.0 |
| 20260505030007 | 60 | 259 | 0.0 | 4.0 | 0.00 | 0.00 | 0.00 | 50 | 1007.0 |
| 20260505025501 | 61 | 264 | 0.0 | 1.0 | 0.00 | 0.00 | 0.00 | 50 | 1007.1 |
| 20260505024955 | 61 | 265 | 0.0 | 4.0 | 0.00 | 0.00 | 0.00 | 50 | 1007.0 |
| 20260505024449 | 61 | 267 | 0.0 | 4.0 | 0.00 | 0.00 | 0.00 | 50 | 1007.1 |
| 20260505023943 | 61 | 231 | 0.0 | 5.0 | 0.00 | 0.00 | 0.00 | 50 | 1007.1 |
| 20260505023437 | 60 | 237 | 0.0 | 5.0 | 0.00 | 0.00 | 0.00 | 50 | 1007.1 |
| 20260505023225 | 60 | 232 | 0.0 | 0.0 | 0.00 | 0.00 | 0.00 | 51 | 1007.1 |
| 20260505022425 | 60 | 232 | 0.0 | 0.0 | 0.00 | 0.00 | 0.00 | 51 | 1007.1 |
| 20260505021919 | 60 | 232 | 0.0 | 2.0 | 0.00 | 0.00 | 0.00 | 50 | 1007.1 |
| 20260505021723 | 60 | 232 | 0.0 | 2.0 | 0.00 | 0.00 | 0.00 | 51 | 1007.1 |
| 20260505021618 | 60 | 226 | 0.0 | 1.0 | 0.00 | 0.00 | 0.00 | 51 | 1007.1 |
| 20260505020402 | 60 | 224 | 0.0 | 2.0 | 0.00 | 0.00 | 0.00 | 51 | 1007.1 |
| 20260505015855 | 60 | 224 | 0.0 | 2.0 | 0.00 | 0.00 | 0.00 | 51 | 1007.0 |
| 20260505015348 | 61 | 224 | 0.0 | 1.0 | 0.00 | 0.00 | 0.00 | 51 | 1007.0 |
| 20260505014842 | 61 | 226 | 0.0 | 0.0 | 0.00 | 0.00 | 0.00 | 50 | 1007.0 |
| 20260505014337 | 61 | 226 | 0.0 | 0.0 | 0.00 | 0.00 | 0.00 | 51 | 1006.9 |
| 20260505013831 | 61 | 226 | 0.0 | 0.0 | 0.00 | 0.00 | 0.00 | 50 | 1006.8 |
| 20260505013325 | 61 | 228 | 0.0 | 0.0 | 0.00 | 0.00 | 0.00 | 50 | 1006.9 |
| 20260505013040 | 62 | 228 | 0.0 | 1.0 | 0.00 | 0.00 | 0.00 | 50 | 1006.8 |
| 20260505012313 | 62 | 228 | 0.0 | 2.0 | 0.00 | 0.00 | 0.00 | 50 | 1006.6 |
| 20260505011808 | 63 | 228 | 0.0 | 2.0 | 0.00 | 0.00 | 0.00 | 48 | 1006.5 |
| 20260505011302 | 63 | 228 | 0.0 | 1.0 | 0.00 | 0.00 | 0.00 | 49 | 1006.4 |
| 20260505010754 | 63 | 227 | 0.0 | 1.0 | 0.00 | 0.00 | 0.00 | 48 | 1006.4 |
| 20260505010249 | 64 | 227 | 0.0 | 2.0 | 0.00 | 0.00 | 0.00 | 47 | 1006.4 |
| 20260505005743 | 64 | 225 | 0.0 | 2.0 | 0.00 | 0.00 | 0.00 | 46 | 1006.3 |
| 20260505005237 | 65 | 159 | 0.0 | 1.0 | 0.00 | 0.00 | 0.00 | 46 | 1006.2 |
| 20260505004731 | 65 | 159 | 0.0 | 1.0 | 0.00 | 0.00 | 0.00 | 44 | 1006.1 |
| 20260505004224 | 65 | 237 | 0.0 | 1.0 | 0.00 | 0.00 | 0.00 | 45 | 1006.1 |
| 20260505003720 | 66 | 248 | 0.0 | 1.0 | 0.00 | 0.00 | 0.00 | 44 | 1006.0 |
| 20260505003214 | 66 | 200 | 0.0 | 5.0 | 0.00 | 0.00 | 0.00 | 43 | 1005.9 |
| 20260505002707 | 66 | 231 | 0.0 | 5.0 | 0.00 | 0.00 | 0.00 | 43 | 1005.8 |
| 20260505002224 | 66 | 212 | 0.0 | 5.0 | 0.00 | 0.00 | 0.00 | 43 | 1005.8 |
| 20260505001701 | 66 | 222 | 0.0 | 5.0 | 0.00 | 0.00 | 0.00 | 43 | 1005.6 |
| 20260505001148 | 66 | 209 | 0.0 | 4.0 | 0.00 | 0.00 | 0.00 | 42 | 1005.6 |
| 20260505000901 | 67 | 219 | 0.0 | 4.0 | 0.00 | 0.00 | 0.00 | 42 | 1005.5 |
| 20260505000137 | 67 | 219 | 0.0 | 4.0 | 0.00 | 0.00 | 0.00 | 42 | 1005.4 |
| 20260504235631 | 67 | 217 | 0.0 | 4.0 | 0.00 | 0.00 | 0.00 | 42 | 1005.3 |
| 20260504235344 | 67 | 238 | 0.0 | 1.0 | 0.00 | 0.00 | 0.00 | 43 | 1005.2 |
| 20260504234619 | 68 | 237 | 0.0 | 1.0 | 0.00 | 0.00 | 0.00 | 43 | 1005.2 |
| 20260504234113 | 68 | 239 | 0.0 | 4.0 | 0.00 | 0.00 | 0.00 | 40 | 1005.1 |
| 20260504233613 | 68 | 207 | 0.0 | 4.0 | 0.00 | 0.00 | 0.00 | 41 | 1005.0 |
| 20260504233113 | 69 | 209 | 0.0 | 4.0 | 0.00 | 0.00 | 0.00 | 43 | 1005.0 |
| 20260504232614 | 69 | 245 | 0.0 | 0.0 | 0.00 | 0.00 | 0.00 | 42 | 1005.0 |
| 20260504232111 | 70 | 224 | 0.0 | 0.0 | 0.00 | 0.00 | 0.00 | 40 | 1004.9 |
| 20260504231833 | 71 | 240 | 0.0 | 4.0 | 0.00 | 0.00 | 0.00 | 38 | 1004.9 |
| 20260504231109 | 71 | 243 | 0.0 | 4.0 | 0.00 | 0.00 | 0.00 | 36 | 1004.8 |
| 20260504230628 | 71 | 242 | 1.0 | 11.0 | 0.00 | 0.00 | 0.00 | 37 | 1004.8 |
| 20260504230327 | 71 | 208 | 1.0 | 11.0 | 0.00 | 0.00 | 0.00 | 36 | 1004.7 |
| 20260504225605 | 71 | 254 | 0.0 | 7.0 | 0.00 | 0.00 | 0.00 | 37 | 1004.6 |
| 20260504225103 | 72 | 239 | 0.0 | 7.0 | 0.00 | 0.00 | 0.00 | 38 | 1004.5 |
| 20260504224603 | 72 | 244 | 0.0 | 8.0 | 0.00 | 0.00 | 0.00 | 38 | 1004.4 |
| 20260504224101 | 72 | 235 | 0.0 | 8.0 | 0.00 | 0.00 | 0.00 | 35 | 1004.4 |
| 20260504223559 | 72 | 227 | 0.0 | 7.0 | 0.00 | 0.00 | 0.00 | 36 | 1004.4 |
| 20260504223059 | 72 | 246 | 0.0 | 5.0 | 0.00 | 0.00 | 0.00 | 36 | 1004.4 |
| 20260504222640 | 71 | 195 | 0.0 | 6.0 | 0.00 | 0.00 | 0.00 | 35 | 1004.5 |
| 20260504222636 | 71 | 243 | 0.0 | 1.0 | 0.00 | 0.00 | 0.00 | 36 | 1004.4 |
| 20260504222632 | 72 | 256 | 0.0 | 5.0 | 0.00 | 0.00 | 0.00 | 36 | 1004.4 |
| 20260504221322 | 72 | 216 | 1.0 | 11.0 | 0.00 | 0.00 | 0.00 | 35 | 1004.5 |
| 20260504220831 | 72 | 250 | 1.0 | 14.0 | 0.00 | 0.00 | 0.00 | 34 | 1004.6 |
| 20260504220652 | 72 | 246 | 1.0 | 14.0 | 0.00 | 0.00 | 0.00 | 35 | 1004.6 |
| 20260504220132 | 72 | 246 | 1.0 | 14.0 | 0.00 | 0.00 | 0.00 | 35 | 1004.6 |
| 20260504215626 | 72 | 243 | 1.0 | 7.0 | 0.00 | 0.00 | 0.00 | 35 | 1004.6 |
| 20260504215054 | 73 | 220 | 1.0 | 6.0 | 0.00 | 0.00 | 0.00 | 35 | 1004.7 |
| 20260504214830 | 72 | 192 | 1.0 | 6.0 | 0.00 | 0.00 | 0.00 | 36 | 1004.7 |
| 20260504214250 | 72 | 276 | 2.0 | 15.0 | 0.00 | 0.00 | 0.00 | 33 | 1004.8 |
| 20260504214128 | 71 | 248 | 0.0 | 5.0 | 0.00 | 0.00 | 0.00 | 36 | 1004.8 |
| 20260504213926 | 72 | 264 | 2.0 | 14.0 | 0.00 | 0.00 | 0.00 | 34 | 1004.8 |
| 20260504213853 | 71 | 234 | 1.0 | 14.0 | 0.00 | 0.00 | 0.00 | 35 | 1004.8 |
| 20260504212328 | 72 | 261 | 1.0 | 15.0 | 0.00 | 0.00 | 0.00 | 34 | 1004.9 |
| 20260504211819 | 72 | 261 | 1.0 | 15.0 | 0.00 | 0.00 | 0.00 | 32 | 1004.8 |
| 20260504211047 | 73 | 245 | 0.0 | 6.0 | 0.00 | 0.00 | 0.00 | 33 | 1004.8 |
| 20260504210809 | 73 | 288 | 0.0 | 6.0 | 0.00 | 0.00 | 0.00 | 34 | 1004.9 |
| 20260504210311 | 73 | 258 | 0.0 | 10.0 | 0.00 | 0.00 | 0.00 | 32 | 1004.9 |
| 20260504205536 | 72 | 254 | 1.0 | 10.0 | 0.00 | 0.00 | 0.00 | 34 | 1005.0 |
| 20260504205313 | 73 | 261 | 1.0 | 8.0 | 0.00 | 0.00 | 0.00 | 32 | 1005.0 |